Regional Weather Roundup
Issued by NWS

Home | Current Version | Previous Version | Graphics & Text | Print | Product List | Glossary On
Versions: 1 2 3 4 5 6 7 8 9 10 11 12 13 14 15 16 17 18 19 20 21 22 23 24 25 26 27 28 29 30 31 32 33 34 35 36 37 38 39 40 41 42 43 44 45 46 47 48 49 50
000
ASUS43 KMKX 110421
RWRWI

WISCONSIN REGIONAL WEATHER ROUNDUP
NATIONAL WEATHER SERVICE MILWAUKEE/SULLIVAN WI
1100 PM CDT THU JUL 10 2014

NOTE: "FAIR" INDICATES FEW OR NO CLOUDS BELOW 12,000 FEET WITH NO
SIGNIFICANT WEATHER AND/OR OBSTRUCTIONS TO VISIBILITY.

WIZ001-002-006>008-014>016-023>028-110500-
NORTHWEST WISCONSIN

CITY           SKY/WX    TMP DP  RH WIND       PRES   REMARKS
SUPERIOR ARPT  PTCLDY    53  50  90 N5        30.00S
ASHLAND        MOCLDY    62  60  93 CALM      30.02S
HAYWARD        MOCLDY    71  64  78 S7        30.03S
SIREN          MOCLDY    72  64  75 S5        30.00S
RICE LAKE      MOCLDY    69  63  82 SE7       30.05S
LADYSMITH      MOCLDY    70  64  80 S3        30.08R
EAU CLAIRE     PTCLDY    72  65  78 S9        30.05R
MENOMONIE      PTCLDY    68  64  84 SE6       30.05R
NEW RICHMOND   MOCLDY    72  59  64 S10       30.02S
OSCEOLA        MOCLDY    74  60  62 S9        30.02S
$$

WIZ003>005-009-010-017-018-110500-
NORTH CENTRAL WISCONSIN

CITY           SKY/WX    TMP DP  RH WIND       PRES   REMARKS
WOODRUFF       MOCLDY    67  60  77 S6        30.09F
RHINELANDER    MOCLDY    64  58  80 S3        30.12R
EAGLE RIVER    PTCLDY    63  55  75 S5        30.10S
LAND O LAKES   PTCLDY    61  56  82 CALM      30.11S
PHILLIPS       MOCLDY    68  62  82 S8        30.07S
TOMAHAWK       CLOUDY    63  59  87 CALM      30.11S
MEDFORD        CLOUDY    66  63  89 S6        30.09F
MERRILL        CLOUDY    68  61  79 CALM      30.10S
$$

WIZ029-030-035-036-043>047-110500-
CENTRAL WISCONSIN

CITY           SKY/WX    TMP DP  RH WIND       PRES   REMARKS
WAUSAU         MOCLDY    69  61  75 S7        30.09R
MOSINEE        MOCLDY    64  61  88 SE5       30.11F
MARSHFIELD     CLOUDY    69  63  81 S7        30.09S
STEVENS POINT  MOCLDY    67  60  77 S6        30.11F
WAUPACA        MOCLDY    69  59  69 S8        30.13R
WAUTOMA        CLOUDY    70  62  75 CALM      30.13R
WISC RAPIDS    CLOUDY    69  62  78 S6        30.11S
CAMP DOUGLAS   MOCLDY    62  62 100 S3        30.10S
$$

WIZ011>013-019>022-031-037>040-048>050-110500-
NORTHEAST WISCONSIN

CITY           SKY/WX    TMP DP  RH WIND       PRES   REMARKS
ANTIGO         MOCLDY    62  58  86 SE7       30.13S
STURGEON BAY   CLEAR     61  48  63 S9        30.14F
GREEN BAY      CLEAR     63  52  67 S6        30.14S
MANITOWOC      CLOUDY    63  51  65 S9        30.16S
APPLETON       PTCLDY    66  68 100 S10       30.14S
CLINTONVILLE   PTCLDY    64  55  72 S5        30.12R
OSHKOSH        PTCLDY    64  54  69 S9        30.13S
$$

WIZ032>034-041-042-053>061-110500-
SOUTHWEST WISCONSIN

CITY           SKY/WX    TMP DP  RH WIND       PRES   REMARKS
LA CROSSE      MOCLDY    73  63  70 S8        30.07R HAZE
SPARTA         MOCLDY    71  59  67 S5        30.09F
VIROQUA        FAIR      69  61  77 S7        30.11S
BOSCOBEL       PTCLDY    69  62  78 CALM      30.11R
PRAIRIE DU CHI PTCLDY    68  60  74 E5        30.10S
PLATTEVILLE    FAIR      66  62  85 SE6       30.15R
$$

WIZ056-057-062-063-064-067-068-110500-
SOUTH CENTRAL WISCONSIN

CITY           SKY/WX    TMP DP  RH WIND       PRES   REMARKS
BARABOO/DELLS  CLOUDY    66  60  81 S5        30.12S
LONE ROCK      MOCLDY    70  62  76 E5        30.12R
WATERTOWN      CLEAR     63  55  74 SE6       30.14F
MADISON        CLOUDY    72  60  66 S6        30.14R
MIDDLETON      FAIR      71  58  62 SW3       30.14R
MONROE         MOCLDY    64  61  88 S8        30.15S
JANESVILLE     PTCLDY    64  59  82 SE5       30.15S
$$

WIZ051-052-058>065-066-070>072-110500-
SOUTHEAST WISCONSIN

CITY           SKY/WX    TMP DP  RH WIND       PRES   REMARKS
MILWAUKEE      PTCLDY    64  50  60 S5        30.17F
WAUKESHA       CLEAR     61  50  67 S6        30.17F
MILWAUKEE/TIMM CLEAR     63  46  55 S5        30.17F
RACINE         CLEAR     62  54  74 S3        30.19S
BURLINGTON     CLEAR     59  53  80 CALM      30.17F
KENOSHA        CLEAR     62  54  74 S5        30.18S
FOND DU LAC    PTCLDY    63  52  67 S8        30.14F
SHEBOYGAN      CLEAR     60  54  80 S6        30.16F
WEST BEND      CLEAR     61  48  63 CALM      30.17S
JUNEAU         PTCLDY    64  40  41 SE10      30.15S
$$

LSZ147-162-110500-
LAKE SUPERIOR

STATION/POSITION TIME  TEMP    WIND        PRES    WAVE
                       AIR SEA DIR/SP/G            HT/PER
                 (UTC) (F)     (DEG/KT/KT) (MB)    (FT/S)
W MID LAKE BUOY  0350   47 38  130/ 10/ 10 1016.3R   0
PORT WING        0340   54      20/  2/  3 1015.9S
SAXON HARBOR     0340          200/  2/  5 1016.3S
$$

LMZ867-665-643>646-110500-
LAKE MICHIGAN

STATION/POSITION TIME  TEMP    WIND        PRES    WAVE
                       AIR SEA DIR/SP/G            HT/PER
                 (UTC) (F)     (DEG/KT/KT) (MB)    (FT/S)
N MID LAKE BUOY  0350   58 56  190/  8/  8 1020.8F   0
NORTHPORT PIER   0300   62     170/  4/  9 1021.0R
SISTER BAY       0155   61     160/  9/ 11   N/A
ALGOMA LAKESHORE 0305          220/ 11/ 12   N/A
KEWAUNEE LAKESHO 0400   56     180/  5/  6 1021.5F
SHEBOYGAN LAKESH 0400   64     200/  9/ 10 1021.5F
PORT WASHINGTON  0300   60     200/  3/  7 1022.4R
ATWATER BUOY     0130   59     160/  6     1021.8
MILWAUKEE LAKESH 0400   64     160/  6/  6   N/A
S MID LAKE BUOY  0350   63 59  150/  4/  4 1022.2R   0
KENOSHA   LAKESH 0400   65     200/  5/  7   N/A
$$

TC  - TEMPERATURE IN CELSIUS
VSB - VISIBILITY IN STATUTE MILES
WCI - WIND CHILL INDEX
HX  - HEAT INDEX




USA.gov is the U.S. government's official web portal to all federal, state and local government web resources and services.